Regional Weather Roundup
Issued by NWS

Home | Current Version | Previous Version | Text Only | Print | Product List | Glossary Off
Versions: 1 2 3 4 5 6 7 8 9 10 11 12 13 14 15 16 17 18 19 20 21 22 23 24 25 26 27 28 29 30 31 32 33 34 35 36 37 38 39 40 41 42 43 44 45 46 47 48 49 50

000
ASUS43 KMKX 281000
RWRWI

WISCONSIN REGIONAL WEATHER ROUNDUP
NATIONAL WEATHER SERVICE MILWAUKEE/SULLIVAN WI
500 AM CDT WED SEP 28 2016

NOTE: "FAIR" INDICATES FEW OR NO CLOUDS BELOW 12,000 FEET WITH NO
SIGNIFICANT WEATHER AND/OR OBSTRUCTIONS TO VISIBILITY.

WIZ001-002-006>008-014>016-023>028-281100-
NORTHWEST WISCONSIN

CITY           SKY/WX    TMP DP  RH WIND       PRES   REMARKS
SUPERIOR ARPT  CLOUDY    54  49  83 N8        29.99R
ASHLAND        CLOUDY    53  50  89 NE16      29.96R
HAYWARD        CLOUDY    52  49  89 N12       29.94R
SIREN          CLOUDY    50  48  93 N7        29.97R
CUMBERLAND     RAIN      46  46 100 N12       29.95R
RICE LAKE      CLOUDY    50  47  88 NW8       29.94R
CHETEK         NOT AVBL
LADYSMITH      CLOUDY    52  50  94 N12G17    29.90R
EAU CLAIRE     NOT AVBL
MENOMONIE      CLOUDY    50  50 100 NW8       29.93R
NEW RICHMOND   CLOUDY    49  48  95 N10G18    29.97R
OSCEOLA        CLOUDY    49  49 100 NW7       30.00R
$$

WIZ003>005-009-010-017-018-281100-
NORTH CENTRAL WISCONSIN

CITY           SKY/WX    TMP DP  RH WIND       PRES   REMARKS
MANITOWISH WTR NOT AVBL
ARBOR VITAE    CLOUDY    52  51  95 N6        29.86R
WOODRUFF       CLOUDY    52  51  95 N6        29.86R
RHINELANDER    MOCLDY    50  50 100 N5        29.86R
EAGLE RIVER    CLOUDY    50  50 100 N5        29.85R
LAND O LAKES   CLOUDY    51  51  99 N7        29.87R
PHILLIPS       CLOUDY    50  50 100 N6        29.87R
TOMAHAWK       CLOUDY    48  47  96 NW3       29.85R
MEDFORD        CLOUDY   N/A N/A N/A N8        29.85R
MERRILL        CLOUDY    49  49 100 CALM      29.85R
$$

WIZ029-030-035-036-043>047-281100-
CENTRAL WISCONSIN

CITY           SKY/WX    TMP DP  RH WIND       PRES   REMARKS
WAUSAU         CLOUDY    50  48  93 N7        29.83R
MOSINEE        CLOUDY    48  48 100 N6        29.84R
MARSHFIELD     CLOUDY    51  47  86 N9        29.85R
STEVENS POINT  CLOUDY    47  47 100 NW5       29.84R
WAUPACA        CLOUDY    52  51  95 NW5       29.82R
WAUTOMA        CLOUDY    49  48  97 NW5       29.84
WISC RAPIDS    CLOUDY    50  49  96 NW3       29.86R
CAMP DOUGLAS   CLOUDY    48  48 100 W8        29.85R
$$

WIZ011>013-019>022-031-037>040-048>050-281100-
NORTHEAST WISCONSIN

CITY           SKY/WX    TMP DP  RH WIND       PRES   REMARKS
ANTIGO         CLOUDY    49  48  97 CALM      29.83R
SHAWANO        CLOUDY    52  49  90 CALM      29.82R
OCONTO         NOT AVBL
STURGEON BAY   PTCLDY    50  48  93 N6        29.81R
GREEN BAY      CLOUDY    50  50 100 NW5       29.81R
MANITOWOC      MOCLDY    48  46  93 NW3       29.80R
APPLETON       CLOUDY    48  48 100 NW6       29.80R
CLINTONVILLE   NOT AVBL
OSHKOSH        CLOUDY    50  48  93 NW6       29.81R
$$

WIZ032>034-041-042-053>061-281100-
SOUTHWEST WISCONSIN

CITY           SKY/WX    TMP DP  RH WIND       PRES   REMARKS
LA CROSSE      CLOUDY    53  49  86 NW13      29.89R
SPARTA         CLOUDY    48  48  99 NW5       29.88R
VIROQUA        CLOUDY    47  47  99 NW7       29.87R
BOSCOBEL       CLOUDY    52  47  83 NW8       29.88R
PRAIRIE DU CHI CLOUDY    51  45  80 NW10      29.88R
PLATTEVILLE    CLOUDY    49  48  95 NW9       29.85S
$$

WIZ056-057-062-063-064-067-068-281100-
SOUTH CENTRAL WISCONSIN

CITY           SKY/WX    TMP DP  RH WIND       PRES   REMARKS
REEDSBURG      NOT AVBL
BARABOO/DELLS  CLOUDY    48  46  93 NW5       29.84R
LONE ROCK      NOT AVBL
MINERAL POINT  CLOUDY    50  46  87 NW8       29.84S
MADISON        CLOUDY    49  47  93 N6        29.83R
MIDDLETON      CLOUDY    50  50 100 NW7       29.84R
WATERTOWN      CLOUDY    48  48 100 NW6       29.81R FOG
MONROE         CLOUDY    46  46 100 NW5       29.82R
JANESVILLE     CLOUDY    50  48  93 NW5       29.81R
$$

WIZ051-052-058>065-066-070>072-281100-
SOUTHEAST WISCONSIN

CITY           SKY/WX    TMP DP  RH WIND       PRES   REMARKS
MILWAUKEE      LGT RAIN  51  48  89 NW7       29.80R
WAUKESHA       CLOUDY    46  46 100 NW5       29.81R FOG
MILWAUKEE/TIMM CLOUDY    48  45  87 W3        29.81R
RACINE         CLOUDY    50  47  89 NW7       29.81R
BURLINGTON     CLOUDY    47  46  98 NW5       29.80S
KENOSHA        CLOUDY    49  47  93 NW5       29.80R
FOND DU LAC    CLOUDY    50  48  93 NW9       29.81R
SHEBOYGAN      CLOUDY    50  47  89 NW5       29.80R
WEST BEND      DRIZZLE   48  46  93 NW3       29.80R
JUNEAU         CLOUDY    48  47  96 NW5       29.82S
$$

LSZ147-162-281100-
LAKE SUPERIOR

STATION/POSITION TIME  TEMP    WIND        PRES    WAVE
                       AIR SEA DIR/SP/G            HT/PER
                 (UTC) (F)     (DEG/KT/KT) (MB)    (FT/S)
W MID LAKE BUOY  0850   56 53   20/ 23/ 29 1012.4R   6/ 6
DEVILS ISLAND    0900   53      10/ 19/ 22 1014.3R
SAXON HARBOR     0929   56      20/ 21/ 25 1013.2R
$$

LMZ867-665-643>646-281100-
LAKE MICHIGAN

STATION/POSITION TIME  TEMP    WIND        PRES    WAVE
                       AIR SEA DIR/SP/G            HT/PER
                 (UTC) (F)     (DEG/KT/KT) (MB)    (FT/S)
CHAMBERS ISLAND  0900   54     340/  8/ 10 1008.8R
S GREEN BAY BUOY 0800   54 62  330/ 10/ 12 1008.1
N MID LAKE BUOY  0850   57 66  150/ 12/ 14 1008.2R   2/ 6
NORTHPORT PIER   0900   55      30/  6/  9 1009.1R
SISTER BAY       0908   53      CALM  /  3   N/A
KEWAUNEE LAKESHO 0900   50     310/  3/  4 1008.2R
SHEBOYGAN LAKESH 0900   50     330/  5/  6 1008.6R
PORT WASHINGTON  0900   51     260/  4/  5 1009.8
ATWATER BUOY     0900   51 54  280/  8/  8 1008.7R
MILWAUKEE LAKESH 0910   51     280/  6/  8   N/A
S MID LAKE BUOY  0850   56 69  280/  8/ 10 1008.2R   2/ 4
KENOSHA   LAKESH 0900   50     290/  4/  6 1008.8R
$$

TC  - TEMPERATURE IN CELSIUS
VSB - VISIBILITY IN STATUTE MILES
WCI - WIND CHILL INDEX
HX  - HEAT INDEX





USA.gov is the U.S. government's official web portal to all federal, state and local government web resources and services.